Weather History for Arcata, CA

Change the Weather History Date:

Sunday, October 27, 2013

  Actual Average Record
Temperature  
Mean Temperature 49 °F -  
Max Temperature 55 °F 58 °F 82 °F (2003)
Min Temperature 44 °F 41 °F 33 °F (2002)
Degree Days  
Heating Degree Days 16    
Moisture  
Dew Point 45 °F    
Average Humidity 87    
Maximum Humidity 100    
Minimum Humidity 72    
Precipitation  
Precipitation 0.01 in - - ()
Sea Level Pressure  
Sea Level Pressure 29.99 in    
Wind  
Wind Speed 5 mph (North)    
Max Wind Speed 15 mph    
Max Gust Speed 25 mph    
Visibility 7 miles    
Events Fog    
Averages and records for this station are not official NWS values.
T = Trace of Precipitation, MM = Missing Value Source: NWS Daily Summary

Daily Weather History Graph

Daily Weather History Graph

Search for Another Location

Airport:

Trip Planner

Search our weather history database for the weather conditions in past years. The results will help you decide how hot, cold, wet, or windy it might be!

Date:

Astronomy

Oct. 27, 2013 Rise Set
Actual Time 7:41 AM PDT 6:18 PM PDT
Civil Twilight 7:13 AM PDT 6:46 PM PDT
Nautical Twilight 6:41 AM PDT 7:18 PM PDT
Astronomical Twilight 6:09 AM PDT 7:50 PM PDT
Moon 12:41 AM PDT (10/27) 2:33 PM PDT (10/27)
Length of Visible Light 11h 32m
Length of Day
10h 36m
Last Quarter, 42% of the Moon is Illuminated
Oct 27
Last Quarter
Nov 3
New
Nov 9
First Quarter
Nov 17
Full
Nov 25
Last Quarter

Hourly Weather History & Observations

Time (PDT) Temp. Windchill Dew Point Humidity Pressure Visibility Wind Dir Wind Speed Gust Speed Precip Events Conditions
12:01 AM 44.6 °F 42.2 °F 42.8 °F 93% 30.11 in 0.2 mi South 4.6 mph - N/A Fog Fog
12:43 AM 44.6 °F 41.4 °F 42.8 °F 93% 30.12 in 0.5 mi ESE 5.8 mph - N/A Fog Fog
12:53 AM 44.1 °F - 43.0 °F 96% 30.14 in 0.5 mi Calm Calm - N/A Fog Fog
1:15 AM 44.6 °F - 42.8 °F 93% 30.12 in 1.0 mi Calm Calm - N/A   Mist
1:30 AM 44.6 °F 43.1 °F 42.8 °F 93% 30.12 in 0.8 mi SE 3.5 mph - N/A   Mist
1:53 AM 44.1 °F 42.5 °F 43.0 °F 96% 30.14 in 0.5 mi East 3.5 mph - N/A Fog Fog
2:37 AM 44.6 °F - 44.6 °F 100% 30.11 in 1.0 mi Calm Calm - 0.01 in   Mist
2:53 AM 44.1 °F - 42.1 °F 93% 30.13 in 1.0 mi Calm Calm - 0.01 in   Overcast
3:53 AM 44.1 °F 42.5 °F 43.0 °F 96% 30.11 in 1.8 mi ENE 3.5 mph - N/A   Overcast
4:46 AM 44.6 °F 43.1 °F 42.8 °F 93% 30.08 in 2.0 mi East 3.5 mph - N/A   Overcast
4:53 AM 44.1 °F 42.5 °F 43.0 °F 96% 30.10 in 2.5 mi East 3.5 mph - N/A   Overcast
5:07 AM 44.6 °F - 42.8 °F 93% 30.07 in 3.0 mi Calm Calm - N/A   Overcast
5:49 AM 44.6 °F - 42.8 °F 93% 30.07 in 10.0 mi Calm Calm - N/A   Overcast
5:53 AM 45.0 °F 43.5 °F 43.0 °F 93% 30.09 in 10.0 mi South 3.5 mph - N/A   Overcast
6:53 AM 46.0 °F 44.8 °F 44.1 °F 93% 30.07 in 10.0 mi SSE 3.5 mph - N/A   Overcast
7:10 AM 46.4 °F 45.2 °F 44.6 °F 93% 30.04 in 10.0 mi SE 3.5 mph - N/A   Overcast
7:53 AM 46.0 °F 43.9 °F 44.1 °F 93% 30.04 in 10.0 mi SE 4.6 mph - N/A   Overcast
8:53 AM 46.9 °F - 44.1 °F 90% 30.07 in 10.0 mi ENE 4.6 mph - N/A   Overcast
9:53 AM 50.0 °F - 46.0 °F 86% 30.04 in 10.0 mi NNE 3.5 mph - N/A   Overcast
10:53 AM 50.0 °F - 46.0 °F 86% 30.02 in 10.0 mi NNW 4.6 mph - N/A   Overcast
11:53 AM 50.0 °F - 46.0 °F 86% 30.02 in 10.0 mi NW 5.8 mph - N/A   Overcast
12:53 PM 51.1 °F - 46.0 °F 83% 30.00 in 10.0 mi NW 9.2 mph - N/A   Overcast
1:33 PM 53.6 °F - 46.4 °F 77% 29.96 in 10.0 mi Calm Calm - N/A   Scattered Clouds
1:53 PM 54.0 °F - 45.0 °F 72% 29.97 in 10.0 mi NW 6.9 mph - N/A   Clear
2:29 PM 53.6 °F - 44.6 °F 72% 29.95 in 10.0 mi NW 15.0 mph - N/A   Mostly Cloudy
2:53 PM 52.0 °F - 45.0 °F 77% 29.96 in 10.0 mi NW 9.2 mph - N/A   Overcast
3:15 PM 51.8 °F - 44.6 °F 76% 29.94 in 10.0 mi WNW 5.8 mph - N/A   Overcast
3:53 PM 51.1 °F - 45.0 °F 80% 29.94 in 10.0 mi SW 4.6 mph - N/A   Overcast
4:17 PM 51.8 °F - 46.4 °F 82% 29.91 in 10.0 mi Variable 4.6 mph - N/A   Overcast
4:53 PM 53.1 °F - 48.9 °F 86% 29.93 in 8.0 mi North 11.5 mph 16.1 mph N/A   Overcast
5:53 PM 52.0 °F - 48.9 °F 89% 29.89 in 8.0 mi North 9.2 mph 17.3 mph N/A   Overcast
6:12 PM 53.6 °F - 48.2 °F 82% 29.87 in 10.0 mi NNW 15.0 mph 21.9 mph N/A   Overcast
6:32 PM 51.8 °F - 46.4 °F 82% 29.86 in 10.0 mi NNW 9.2 mph 18.4 mph N/A   Overcast
6:53 PM 52.0 °F - 46.9 °F 83% 29.87 in 10.0 mi North 8.1 mph 20.7 mph N/A   Overcast
7:50 PM 51.8 °F - 46.4 °F 82% 29.84 in 9.0 mi North 12.7 mph 21.9 mph N/A   Overcast
7:53 PM 52.0 °F - 46.9 °F 83% 29.86 in 8.0 mi North 13.8 mph 20.7 mph N/A   Overcast
8:53 PM 52.0 °F - 46.9 °F 83% 29.83 in 8.0 mi North 15.0 mph 25.3 mph N/A   Overcast
9:53 PM 52.0 °F - 48.0 °F 86% 29.82 in 7.0 mi North 15.0 mph 19.6 mph N/A   Overcast
10:53 PM 52.0 °F - 46.9 °F 83% 29.81 in 8.0 mi North 13.8 mph 23.0 mph N/A   Overcast
11:41 PM 50.0 °F - 46.4 °F 87% 29.79 in 8.0 mi NNW 9.2 mph - N/A   Scattered Clouds
11:53 PM 50.0 °F - 46.0 °F 86% 29.81 in 7.0 mi NNW 8.1 mph - N/A   Mostly Cloudy